EW7149 Weather Reports


Display with metric or nautical units.
time (UTC)temp
F
wind
direction
speed
MPH
gust
MPH
rain 1hr
in
rain 24hr
in
rain mn
in
humidity
%
barometer
mb
20260901005947 73 169 0.0 0.0 0.00 0.00 0.00 1 1017.6
20260901005449 73 169 0.0 0.0 0.00 0.00 0.00 1 1017.5
20260901004931 74 169 0.0 0.0 0.00 0.00 0.00 1 1017.4
20260901004432 74 169 0.0 0.0 0.00 0.00 0.00 1 1017.4
20260901003929 74 169 0.0 0.0 0.00 0.00 0.00 1 1017.5
20260901003426 74 169 0.0 0.0 0.00 0.00 0.00 1 1017.4
20260901002933 74 169 0.0 0.0 0.00 0.00 0.00 1 1017.4
20260901002417 74 169 0.0 0.0 0.00 0.00 0.00 1 1017.2
20260901001925 74 169 0.0 0.0 0.00 0.00 0.00 1 1017.2
20260901001416 75 169 0.0 0.0 0.00 0.00 0.00 1 1017.3
20260901000905 75 169 0.0 0.0 0.00 0.00 0.00 1 1017.2
20260901000351 75 169 0.0 0.0 0.00 0.00 0.00 1 1017.1
20260831235850 76 169 0.0 0.0 0.00 0.00 0.00 1 1017.0
20260831235347 76 169 0.0 0.0 0.00 0.00 0.00 1 1017.1
20260831234321 77 169 0.0 0.0 0.00 0.00 0.00 1 1017.3
20260831233831 77 169 0.0 0.0 0.00 0.00 0.00 1 1017.3
20260831233325 78 169 0.0 0.0 0.00 0.00 0.00 1 1017.3
20260831232815 78 169 0.0 0.0 0.00 0.00 0.00 1 1017.4
20260831232305 78 169 0.0 0.0 0.00 0.00 0.00 1 1017.4
20260831231809 78 169 0.0 0.0 0.00 0.00 0.00 1 1017.3
20260831231304 79 169 0.0 0.0 0.00 0.00 0.00 1 1017.4
20260831230812 79 169 0.0 0.0 0.00 0.00 0.00 1 1017.3
20260831230253 79 169 0.0 0.0 0.00 0.00 0.00 1 1017.3
20260831225747 79 227 0.0 0.0 0.00 0.00 0.00 1 1017.4
20260831225245 79 227 0.0 0.0 0.00 0.00 0.00 1 1017.4
20260831224220 80 227 0.0 0.0 0.00 0.00 0.00 1 1017.7
20260831223728 80 227 0.0 0.0 0.00 0.00 0.00 1 1017.6
20260831223214 80 227 0.0 0.0 0.00 0.00 0.00 1 1017.7
20260831222723 80 227 0.0 0.0 0.00 0.00 0.00 1 1017.8
20260831222216 80 227 0.0 0.0 0.00 0.00 0.00 1 1017.8
20260831221721 80 227 0.0 0.0 0.00 0.00 0.00 1 1017.9
20260831221210 80 227 0.0 0.0 0.00 0.00 0.00 1 1017.9
20260831215142 81 227 0.0 0.0 0.00 0.00 0.00 1 1017.9
20260831214637 81 227 0.0 0.0 0.00 0.00 0.00 1 1017.8
20260831214145 81 227 0.0 0.0 0.00 0.00 0.00 1 1017.8
20260831213629 81 227 0.0 0.0 0.00 0.00 0.00 1 1017.8
20260831213112 81 227 0.0 0.0 0.00 0.00 0.00 1 1017.8
20260831212620 81 227 0.0 0.0 0.00 0.00 0.00 1 1017.9
20260831212123 81 227 0.0 1.0 0.00 0.00 0.00 1 1017.9
20260831211619 82 227 0.0 0.0 0.00 0.00 0.00 1 1017.9
20260831210104 82 227 0.0 0.0 0.00 0.00 0.00 2 1018.0
20260831205550 82 227 0.0 0.0 0.00 0.00 0.00 5 1018.0
20260831205031 82 148 0.0 0.0 0.00 0.00 0.00 4 1018.0
20260831204525 82 148 0.0 0.0 0.00 0.00 0.00 9 1018.0
20260831204007 82 148 0.0 0.0 0.00 0.00 0.00 5 1018.0
20260831201921 82 183 0.0 0.0 0.00 0.00 0.00 4 1018.1
20260831201408 82 239 0.0 0.0 0.00 0.00 0.00 6 1018.2
20260831200918 82 242 0.0 0.0 0.00 0.00 0.00 1 1018.1
20260831195913 82 241 0.0 1.0 0.00 0.00 0.00 1 1018.1
20260831194926 81 240 0.0 0.0 0.00 0.00 0.00 1 1018.2
20260831194422 82 240 0.0 0.0 0.00 0.00 0.00 1 1018.2
20260831193911 82 238 0.0 0.0 0.00 0.00 0.00 1 1018.3
20260831192905 82 189 0.0 0.0 0.00 0.00 0.00 1 1018.4
20260831192351 82 189 0.0 0.0 0.00 0.00 0.00 1 1018.4
20260831191854 82 189 0.0 0.0 0.00 0.00 0.00 1 1018.5
20260831191346 82 189 0.0 0.0 0.00 0.00 0.00 5 1018.5
20260831190846 82 189 0.0 0.0 0.00 0.00 0.00 8 1018.5
20260831190328 82 189 0.0 0.0 0.00 0.00 0.00 2 1018.6
20260831185827 82 189 0.0 0.0 0.00 0.00 0.00 8 1018.7
20260831185314 82 189 0.0 0.0 0.00 0.00 0.00 9 1018.7
20260831184759 82 189 0.0 0.0 0.00 0.00 0.00 14 1018.7
20260831184305 83 189 0.0 0.0 0.00 0.00 0.00 19 1018.7
20260831183755 83 189 0.0 1.0 0.00 0.00 0.00 21 1018.7
20260831183244 83 187 0.0 0.0 0.00 0.00 0.00 26 1018.7
20260831182754 83 184 0.0 0.0 0.00 0.00 0.00 30 1018.6
20260831182235 84 184 0.0 0.0 0.00 0.00 0.00 26 1018.6
20260831181233 84 153 0.0 0.0 0.00 0.00 0.00 30 1018.7
20260831180720 84 151 0.0 0.0 0.00 0.00 0.00 28 1018.8
20260831180230 84 151 0.0 0.0 0.00 0.00 0.00 28 1018.7
20260831175714 83 242 0.0 0.0 0.00 0.00 0.00 28 1018.8
20260831175203 83 242 0.0 0.0 0.00 0.00 0.00 26 1018.8
20260831174657 83 219 0.0 0.0 0.00 0.00 0.00 27 1018.8
20260831174206 83 123 0.0 0.0 0.00 0.00 0.00 25 1018.9
20260831173654 83 109 0.0 0.0 0.00 0.00 0.00 24 1018.8
20260831173153 83 107 0.0 0.0 0.00 0.00 0.00 26 1018.9
20260831172656 83 88 0.0 0.0 0.00 0.00 0.00 24 1018.9
20260831172155 82 86 0.0 0.0 0.00 0.00 0.00 21 1018.9
20260831171637 83 79 0.0 0.0 0.00 0.00 0.00 27 1019.0
20260831170630 83 5 0.0 0.0 0.00 0.00 0.00 23 1019.1
20260831170112 83 5 0.0 0.0 0.00 0.00 0.00 22 1019.1
20260831164559 83 9 0.0 0.0 0.00 0.00 0.00 29 1019.2
20260831163554 83 315 0.0 0.0 0.00 0.00 0.00 24 1019.1
20260831163056 83 67 0.0 3.0 0.00 0.00 0.00 15 1019.2
20260831162046 83 159 0.0 0.0 0.00 0.00 0.00 28 1019.1
20260831161543 83 159 0.0 0.0 0.00 0.00 0.00 27 1019.1
20260831160538 84 305 0.0 0.0 0.00 0.00 0.00 25 1019.2
20260831160041 83 309 0.0 0.0 0.00 0.00 0.00 26 1019.3
20260831155528 83 309 0.0 0.0 0.00 0.00 0.00 23 1019.4
20260831155031 83 309 0.0 0.0 0.00 0.00 0.00 19 1019.3
20260831154519 83 309 0.0 0.0 0.00 0.00 0.00 6 1019.2
20260831154028 82 308 0.0 0.0 0.00 0.00 0.00 16 1019.3
20260831153536 82 153 0.0 0.0 0.00 0.00 0.00 16 1019.3
20260831153027 82 98 0.0 2.0 0.00 0.00 0.00 5 1019.4
20260831152033 81 91 0.0 0.0 0.00 0.00 0.00 15 1019.5
20260831151046 80 96 0.0 0.0 0.00 0.00 0.00 1 1019.6
20260831145542 78 286 0.0 0.0 0.00 0.00 0.00 1 1019.6
20260831145044 77 290 0.0 0.0 0.00 0.00 0.00 1 1019.6
20260831144549 77 290 0.0 0.0 0.00 0.00 0.00 1 1019.7
20260831144051 76 175 0.0 0.0 0.00 0.00 0.00 1 1019.7
20260831143558 76 187 0.0 0.0 0.00 0.00 0.00 1 1019.7
20260831143039 75 123 0.0 0.0 0.00 0.00 0.00 1 1019.7
20260831142540 75 123 0.0 0.0 0.00 0.00 0.00 1 1019.6
20260831142037 75 123 0.0 0.0 0.00 0.00 0.00 1 1019.7
20260831140545 74 118 0.0 1.0 0.00 0.00 0.00 1 1019.5
20260831140037 75 67 0.0 0.0 0.00 0.00 0.00 1 1019.4
20260831135026 75 67 0.0 0.0 0.00 0.00 0.00 1 1019.4
20260831132954 75 76 0.0 0.0 0.00 0.00 0.00 1 1019.4
20260831132449 75 76 0.0 0.0 0.00 0.00 0.00 1 1019.4
20260831131938 74 32 0.0 0.0 0.00 0.00 0.00 1 1019.3
20260831131440 74 32 0.0 0.0 0.00 0.00 0.00 1 1019.3
20260831130937 74 31 0.0 0.0 0.00 0.00 0.00 1 1019.4
20260831125919 74 355 0.0 0.0 0.00 0.00 0.00 1 1019.6
20260831125413 74 355 0.0 0.0 0.00 0.00 0.00 1 1019.5
20260831124917 73 355 0.0 0.0 0.00 0.00 0.00 1 1019.6
20260831124415 73 273 0.0 0.0 0.00 0.00 0.00 1 1019.6
20260831123914 73 273 0.0 0.0 0.00 0.00 0.00 1 1019.5
20260831123415 73 273 0.0 0.0 0.00 0.00 0.00 1 1019.5
20260831122923 73 273 0.0 0.0 0.00 0.00 0.00 1 1019.4
20260831122429 73 273 0.0 0.0 0.00 0.00 0.00 1 1019.4
20260831121915 73 273 0.0 0.0 0.00 0.00 0.00 1 1019.4
20260831121424 73 273 0.0 0.0 0.00 0.00 0.00 1 1019.4
20260831120353 73 273 0.0 0.0 0.00 0.00 0.00 1 1019.2
20260831115853 73 273 0.0 0.0 0.00 0.00 0.00 1 1019.1
20260831115349 73 273 0.0 0.0 0.00 0.00 0.00 1 1019.1
20260831114859 73 273 0.0 0.0 0.00 0.00 0.00 1 1019.2
20260831114401 73 273 0.0 0.0 0.00 0.00 0.00 1 1019.1
20260831113856 72 273 0.0 0.0 0.00 0.00 0.00 1 1019.0
20260831113358 72 273 0.0 0.0 0.00 0.00 0.00 1 1019.0
20260831112901 72 273 0.0 0.0 0.00 0.00 0.00 1 1018.9
20260831111900 72 273 0.0 0.0 0.00 0.00 0.00 1 1019.0
20260831111402 72 273 0.0 0.0 0.00 0.00 0.00 1 1019.0
20260831110852 72 273 0.0 0.0 0.00 0.00 0.00 1 1018.9
20260831110348 72 273 0.0 0.0 0.00 0.00 0.00 1 1018.8
20260831105857 72 273 0.0 0.0 0.00 0.00 0.00 1 1018.6
20260831104909 72 273 0.0 0.0 0.00 0.00 0.00 1 1018.5
20260831104356 71 273 0.0 0.0 0.00 0.00 0.00 1 1018.5
20260831102842 71 273 0.0 0.0 0.00 0.00 0.00 1 1018.3
20260831102334 71 273 0.0 0.0 0.00 0.00 0.00 1 1018.3
20260831101842 71 273 0.0 0.0 0.00 0.00 0.00 1 1018.2
20260831101332 72 273 0.0 0.0 0.00 0.00 0.00 1 1018.3
20260831100816 72 273 0.0 0.0 0.00 0.00 0.00 1 1018.3
20260831100258 72 273 0.0 0.0 0.00 0.00 0.00 1 1018.2
20260831095751 72 273 0.0 0.0 0.00 0.00 0.00 1 1018.1
20260831095250 72 273 0.0 0.0 0.00 0.00 0.00 1 1018.1
20260831094750 72 273 0.0 0.0 0.00 0.00 0.00 1 1018.1
20260831094300 72 273 0.0 0.0 0.00 0.00 0.00 1 1018.1
20260831093759 72 273 0.0 0.0 0.00 0.00 0.00 1 1018.1
20260831092732 72 273 0.0 0.0 0.00 0.00 0.00 1 1018.1
20260831092227 72 273 0.0 0.0 0.00 0.00 0.00 1 1018.0
20260831091717 72 273 0.0 0.0 0.00 0.00 0.00 1 1018.1
20260831091224 72 273 0.0 0.0 0.00 0.00 0.00 1 1018.2
20260831090706 72 273 0.0 0.0 0.00 0.00 0.00 1 1018.0
20260831085646 72 273 0.0 0.0 0.00 0.00 0.00 1 1017.9
20260831085153 72 273 0.0 0.0 0.00 0.00 0.00 1 1017.9
20260831084637 71 273 0.0 0.0 0.00 0.00 0.00 1 1018.0
20260831083639 71 273 0.0 0.0 0.00 0.00 0.00 1 1018.0
20260831083137 71 273 0.0 0.0 0.00 0.00 0.00 1 1018.0
20260831082646 71 273 0.0 0.0 0.00 0.00 0.00 1 1018.0
20260831082138 71 273 0.0 0.0 0.00 0.00 0.00 1 1017.9
20260831081113 71 273 0.0 0.0 0.00 0.00 0.00 1 1017.9
20260831080558 72 273 0.0 0.0 0.00 0.00 0.00 1 1018.0
20260831075016 72 273 0.0 0.0 0.00 0.00 0.00 1 1017.9
20260831074512 72 273 0.0 0.0 0.00 0.00 0.00 1 1017.8
20260831074020 72 273 0.0 0.0 0.00 0.00 0.00 1 1017.8
20260831073516 72 273 0.0 0.0 0.00 0.00 0.00 1 1017.6
20260831072501 72 273 0.0 0.0 0.00 0.00 0.00 1 1017.6
20260831071948 72 273 0.0 0.0 0.00 0.00 0.00 1 1017.6
20260831071453 72 273 0.0 0.0 0.00 0.00 0.00 1 1017.6
20260831071000 72 273 0.0 0.0 0.00 0.00 0.00 1 1017.7
20260831070442 72 273 0.0 0.0 0.00 0.00 0.00 1 1017.8
20260831065933 72 273 0.0 0.0 0.00 0.00 0.00 1 1017.9
20260831065438 72 273 0.0 0.0 0.00 0.00 0.00 1 1017.8
20260831064944 72 273 0.0 0.0 0.00 0.00 0.00 1 1017.8
20260831064435 72 273 0.0 0.0 0.00 0.00 0.00 1 1017.8
20260831063449 72 273 0.0 0.0 0.00 0.00 0.00 1 1017.9
20260831062956 73 273 0.0 0.0 0.00 0.00 0.00 1 1017.8
20260831062456 73 273 0.0 0.0 0.00 0.00 0.00 1 1017.9
20260831061952 73 273 0.0 0.0 0.00 0.00 0.00 1 1017.8
20260831061435 73 273 0.0 0.0 0.00 0.00 0.00 1 1017.7
20260831060434 73 273 0.0 0.0 0.00 0.00 0.00 1 1017.9
20260831055917 73 273 0.0 0.0 0.00 0.00 0.00 1 1018.0
20260831054932 73 273 0.0 0.0 0.00 0.00 0.00 1 1018.0
20260831054441 73 273 0.0 0.0 0.00 0.00 0.00 1 1018.1
20260831053438 73 273 0.0 0.0 0.00 0.00 0.00 1 1018.2
20260831052925 72 273 0.0 0.0 0.00 0.00 0.00 1 1018.3
20260831052418 72 273 0.0 0.0 0.00 0.00 0.00 1 1018.4
20260831050329 72 273 0.0 0.0 0.00 0.00 0.00 1 1018.4
20260831045813 72 273 0.0 0.0 0.00 0.00 0.00 1 1018.4
20260831045255 72 273 0.0 0.0 0.00 0.00 0.00 1 1018.4
20260831044759 72 273 0.0 0.0 0.00 0.00 0.00 1 1018.3
20260831044240 73 273 0.0 0.0 0.00 0.00 0.00 1 1018.3
20260831043738 73 273 0.0 0.0 0.00 0.00 0.00 1 1018.3
20260831043236 73 273 0.0 0.0 0.00 0.00 0.00 1 1018.4
20260831042733 73 273 0.0 0.0 0.00 0.00 0.00 1 1018.4
20260831042233 73 273 0.0 0.0 0.00 0.00 0.00 1 1018.3
20260831040726 73 273 0.0 0.0 0.00 0.00 0.00 1 1018.5
20260831035730 73 273 0.0 0.0 0.00 0.00 0.00 1 1018.6
20260831035238 73 273 0.0 0.0 0.00 0.00 0.00 1 1018.6
20260831034728 73 273 0.0 0.0 0.00 0.00 0.00 1 1018.6
20260831034213 73 273 0.0 0.0 0.00 0.00 0.00 1 1018.7
20260831033706 73 273 0.0 0.0 0.00 0.00 0.00 1 1018.7
20260831033203 73 273 0.0 0.0 0.00 0.00 0.00 1 1018.7
20260831032157 73 273 0.0 0.0 0.00 0.00 0.00 1 1018.7
20260831031643 74 273 0.0 0.0 0.00 0.00 0.00 1 1018.8
20260831031128 74 273 0.0 0.0 0.00 0.00 0.00 1 1018.8
20260831025630 74 273 0.0 0.0 0.00 0.00 0.00 1 1018.8
20260831025125 74 273 0.0 0.0 0.00 0.00 0.00 1 1018.8
20260831024621 74 273 0.0 0.0 0.00 0.00 0.00 1 1018.8
20260831024112 74 192 0.0 0.0 0.00 0.00 0.00 1 1018.8
20260831023557 74 192 0.0 0.0 0.00 0.00 0.00 1 1018.9
20260831022544 74 191 0.0 0.0 0.00 0.00 0.00 1 1019.0
20260831022037 75 190 0.0 0.0 0.00 0.00 0.00 1 1019.0
20260831021534 75 190 0.0 0.0 0.00 0.00 0.00 1 1019.0
20260831020547 75 189 0.0 0.0 0.00 0.00 0.00 1 1019.0
20260831020038 75 128 0.0 0.0 0.00 0.00 0.00 1 1019.0
20260831015539 75 128 0.0 0.0 0.00 0.00 0.00 1 1018.9
20260831015045 75 128 0.0 0.0 0.00 0.00 0.00 1 1018.9
20260831014527 76 128 0.0 1.0 0.00 0.00 0.00 1 1018.9
20260831014009 76 128 0.0 0.0 0.00 0.00 0.00 1 1018.9
20260831013505 76 133 0.0 2.0 0.00 0.00 0.00 1 1019.0
20260831012454 76 148 0.0 0.0 0.00 0.00 0.00 1 1018.9
20260831011954 76 150 0.0 0.0 0.00 0.00 0.00 1 1018.8
20260831011443 77 151 0.0 0.0 0.00 0.00 0.00 1 1018.8